Reflectivity
-20 -20 -20 -20 -20 -20 -20 -20 -20 -20 -20 -20 -20 -20 -20 -20 -20 -20 -20 -20 -20 -20 -20 -20 -20 -20 -20 -20 -20 -20 -20 -20 -20 -20 -20 -20 -20 -20 -20 -20 -20 -20 -20
-20 -20 -20 -20 -20 -20 -20 -20 -20 -20 -20 -20 -20 -20 -20 -20 -20 -20 -20 -20 -20 -20 -20 -20 -20 -20 -20 -20 -20 -20 -20 -20 -20 -20 -20 -20 -20 -20 -20 -20 -20 -20 -3
-20 -20 -20 -20 -20 -20 -20 -20 -20 -20 -20 -20 -20 -20 -20 -20 -20 -20 -20 -20 -20 -20 -20 -20 -20 -20 -20 -20 -20 -20 -20 -20 -20 -20 -20 -20 -20 -20 -20 -20 -20 -20 -20
-20 -20 -20 -20 -20 -20 -20 -20 -20 -20 -20 -20 -20 -20 -20 -20 -20 -20 -20 -20 -20 -20 -20 -20 -20 -20 -20 -20 -20 -20 -20 -20 -20 -20 -20 -19 -19 -20 -20 -20 -18 -20 -9
-20 -20 -20 -20 -20 -20 -20 -20 -20 -20 -20 -20 -20 -20 -20 -20 -20 -20 -20 -20 -20 -20 -20 -20 -20 -20 -20 -20 -20 -20 -20 -20 -20 -20 -20 -20 -20 -20 -20 -20 -17 -3 -20
-20 -20 -20 -20 -20 -20 -20 -20 -20 -20 -20 -20 -20 -20 -20 -20 -20 -20 -20 -20 -20 -20 -20 -20 -20 -20 -20 -20 -20 -20 -20 -20 -20 -20 -20 -20 -20 -20 -20 -16 -20 -8 -20
-20 -20 -20 -20 -20 -20 -20 -20 -20 -20 -20 -20 -20 -20 -20 -20 -20 -20 -20 -20 -20 -20 -20 -20 -20 -20 -20 -20 -20 -20 -20 -20 -20 -20 -20 -20 -20 -20 -20 -16 -20 -20 -20
-20 -20 -20 -20 -20 -20 -20 -20 -20 -20 -20 -20 -20 -20 -20 -20 -20 -20 -20 -20 -20 -20 -20 -20 -20 -20 -20 -20 -20 -20 -20 -20 -20 -20 -20 -20 -20 -20 -20 -20 -20 -20 -20
-20 -20 -20 -20 -20 -20 -20 -20 -20 -20 -20 -20 -20 -20 -20 -20 -20 -20 -20 -20 -20 -20 -20 -20 -20 -20 -20 -20 -20 -20 -20 -20 -20 -20 -20 -20 -20 -20 -20 -20 -20 -17 -20
-20 -20 -20 -20 -20 -20 -20 -20 -20 -20 -20 -20 -20 -20 -20 -20 -20 -20 -20 -20 -20 -20 -20 -20 -20 -20 -20 -20 -20 -20 -20 -20 -20 -20 -20 -20 -20 -20 -20 -20 -20 -19 -20
-20 -20 -20 -20 -20 -20 -20 -20 -20 -20 -20 -20 -20 -20 -20 -20 -20 -20 -20 -20 -20 -20 -20 -20 -20 -20 -20 -20 -6 -20 -20 -15 -20 -19 -20 -20 -20 -20 -20 -20 -20 -20 -20
-20 -20 -20 -20 -20 -20 -20 -20 -20 -20 -20 -20 -20 -20 -20 -20 -20 -20 -20 -20 -20 -20 -20 -20 -20 -20 -20 -20 -20 -20 -20 -10 -17 -1 -20 -2 -12 -20 -20 -20 -20 -20 -20
-20 -20 -20 -20 -20 -20 -20 -20 -20 -20 -20 -20 -20 -20 -20 -20 -20 -20 -20 -20 -20 -20 -20 -20 -20 -20 -20 -20 -20 -20 -20 -20 -19 -17 -1 6 10 -3 -15 -20 -20 -20 -20
-20 -20 -20 -20 -20 -20 -20 -20 -20 -20 -20 -20 -20 -20 -20 -20 -20 -20 -20 -20 -20 -20 -20 -20 -20 -20 -20 -20 -20 -20 -20 -20 -20 -20 -20 -20 -4 18 -14 -20 -20 -1 -9
-20 -20 -20 -20 -20 -20 -20 -20 -20 -20 -20 -20 -20 -20 -20 -20 -20 -20 -20 -20 -20 -20 -10 -9 -20 -20 -20 -20 -20 -20 -20 -12 3 6 2 -20 -20 -4 -7 -12 -4 -13 -17
-20 -20 -20 -20 -20 -20 -20 -20 -20 -20 -20 -20 -20 -20 -20 -20 -20 -20 -20 0 -10 -5 6 -0 -20 -20 -20 -20 -20 -20 -20 -4 5 12 -8 -20 -20 -1 3 3 -12 -4 -16
-20 -20 -20 -20 -20 -20 -20 -20 -20 -20 -20 -20 -20 -20 -20 -20 -20 -20 -20 -11 -1 -3 4 -19 -2 -3 -20 -20 -20 -5 2 1 1 -19 -13 -12 -12 -10 14 9 -5 -17 -16
-20 -20 -20 -20 -20 -20 -20 -20 -20 -20 -20 -20 -20 -20 -20 -20 -20 -20 -20 -7 -20 -20 -9 -3 -2 1 2 2 2 -5 -2 -15 5 3 4 -16 -2 13 3 -1 3 -17 -16
-20 -20 -20 -20 -20 -20 -20 -20 -20 -20 -20 -20 -20 -20 -20 -20 -20 -20 -20 -2 -15 -20 -20 -20 -20 -11 -11 1 7 8 8 10 -3 7 0 -14 -3 2 2 6 4 -6 13
-20 -20 -20 -20 -20 -20 -20 -20 -20 -20 -20 -20 -20 -20 -20 -20 -20 -20 -20 -17 -12 -14 3 6 0 2 4 6 7 11 12 12 3 8 5 -5 -2 6 -6 4 -1 13 12
-20 -20 -20 -20 -20 -20 -20 -20 -20 -20 -20 -20 -20 -20 -20 -6 -7 -20 -20 -20 -18 -19 6 7 4 -2 7 9 10 12 8 -1 -3 5 21 18 -5 7 -15 10 7 11 8
-20 -20 -20 -20 -20 -20 -20 -20 -20 -20 -20 -20 -20 -19 8 -1 -18 -20 -20 -13 3 4 3 7 8 9 8 8 5 -1 10 2 -11 -1 13 20 3 -11 4 9 12 15 13
-20 -20 -20 -20 -20 -20 -20 -20 -20 -20 -20 -20 -20 -20 -20 -20 -20 -5 -6 3 4 5 4 7 8 6 3 1 -4 6 5 1 4 4 16 8 10 2 -9 6 14 3 -15
-20 -20 -20 -20 -20 -20 -20 -20 -20 -10 -4 -5 -20 -20 -20 2 10 10 8 7 6 5 5 4 -6 -2 0 -4 -2 5 13 -11 6 19 6 10 16 9 8 15 5 -19 -20
-20 -20 -20 -20 -20 -20 -4 -20 -20 -20 -20 -18 2 10 11 10 10 8 6 5 3 5 1 -1 -18 10 11 -4 -20 2 15 8 16 0 -4 7 9 9 13 -3 -19 -19 -20
-15 -12 -4 1 -15 -20 -20 -20 -20 -20 -10 7 9 10 10 9 6 8 6 5 4 3 7 19 2 -1 10 -2 -4 -12 15 16 11 -9 -3 8 10 13 -4 -18 -20 -18 -19
Wind_Speed
7 7 7 7 8 7 5 6 5 5 5 6 6 6 7 7 7 7 8 8 8 8 8 8 9 8 6 6 6 6 7 7 10 10 9 9 11 11 11 10 9 10 8
6 7 7 7 7 6 6 6 5 6 5 6 6 7 7 7 7 8 9 8 9 9 9 9 10 7 9 8 7 8 8 8 9 14 10 8 9 8 8 11 10 8 7
6 7 6 6 7 6 6 6 5 5 6 6 6 7 7 7 8 8 9 9 9 10 10 10 10 9 9 8 8 7 7 7 8 10 10 8 8 7 8 7 9 9 8
5 6 6 6 7 7 7 6 6 6 6 6 6 6 7 7 8 8 9 9 10 10 10 10 10 10 10 10 9 9 8 8 9 9 10 9 8 8 7 7 7 7 7
5 5 5 6 6 6 7 7 7 7 6 6 6 6 6 6 6 7 8 9 9 10 10 10 11 11 11 12 8 9 9 8 8 8 9 9 8 7 7 6 7 7 9
6 6 5 6 6 6 6 7 6 6 6 6 6 7 8 6 7 11 10 9 10 10 10 10 10 10 13 18 18 20 15 11 11 9 9 10 11 9 6 6 7 7 6
7 6 6 6 6 6 6 6 6 6 6 6 6 6 7 8 9 11 10 8 9 9 10 10 10 8 9 11 13 17 19 21 21 14 14 13 12 10 8 9 9 9 9
7 7 6 6 6 6 6 7 7 6 6 7 7 6 7 7 9 11 11 9 8 9 9 10 11 11 10 11 11 12 13 13 14 11 15 14 13 11 9 9 10 10 10
8 8 6 5 6 7 8 8 7 7 7 7 7 8 9 9 8 10 9 8 8 9 8 9 9 10 11 12 10 12 13 12 11 17 20 19 16 15 12 8 8 8 8
7 7 5 6 7 8 9 9 8 7 8 7 9 8 11 12 10 10 8 7 9 8 9 9 10 12 14 13 11 11 12 13 11 12 11 14 18 15 18 12 8 8 7
6 6 6 7 8 9 9 8 8 9 9 10 10 11 12 11 12 13 12 8 8 8 8 8 7 10 13 15 15 11 14 14 14 12 11 10 10 10 9 10 10 9 8
6 7 8 8 7 7 9 9 9 9 10 11 11 11 10 11 12 15 16 15 15 11 11 9 9 13 15 17 15 18 20 18 9 9 8 9 10 9 8 9 10 9 9
8 10 10 9 9 8 9 10 9 9 9 10 9 10 10 9 10 14 18 19 18 13 10 13 17 20 22 18 20 20 17 9 8 8 9 9 8 9 7 4 6 7 7
11 11 10 9 9 9 7 7 8 8 9 9 9 10 10 10 10 10 9 9 12 11 13 11 13 17 20 20 17 13 10 9 9 10 9 9 8 6 8 7 7 6 7
11 10 10 9 10 10 9 9 9 11 9 10 10 10 10 11 11 13 14 11 10 12 14 10 10 10 10 10 9 10 9 9 9 9 9 9 9 8 9 8 8 7 8
11 9 8 9 9 9 9 11 11 14 18 19 21 18 12 21 26 25 24 24 24 23 12 12 11 11 10 10 9 10 9 11 8 9 10 10 10 9 9 8 8 8 9
11 11 10 11 10 10 9 10 11 10 14 17 20 22 23 22 24 24 23 22 23 20 11 11 11 10 10 10 10 9 9 8 10 9 10 10 10 10 10 9 9 8 9
12 15 10 11 10 10 10 10 9 10 11 10 15 15 17 21 22 22 21 17 11 11 9 9 10 10 10 10 10 10 10 10 8 10 10 10 10 9 9 9 9 10 9
11 10 10 10 9 10 10 10 10 10 10 11 11 14 13 16 18 19 20 10 10 10 9 9 10 10 11 11 11 10 10 10 9 9 9 10 9 8 9 9 9 14 11
12 16 15 10 9 10 9 9 10 10 10 10 10 10 10 11 9 9 9 9 9 10 9 9 10 10 11 11 11 9 10 10 9 9 10 9 9 8 9 9 8 8 8
9 10 14 10 10 9 9 9 9 9 9 9 10 10 18 10 10 10 10 10 9 10 10 10 11 11 10 10 10 10 11 9 9 10 9 8 8 7 8 7 8 7 6
10 10 10 10 9 9 9 10 9 9 10 11 11 12 20 10 9 11 11 11 11 11 10 11 10 10 10 10 10 10 10 10 9 9 9 8 7 7 7 7 7 7 7
10 11 11 10 10 12 10 9 9 9 10 11 10 10 9 9 10 10 11 12 12 11 11 11 11 11 11 10 10 10 10 10 8 7 8 7 7 7 8 7 8 7 7
12 12 12 11 9 9 9 10 9 12 11 10 10 11 11 10 11 12 12 12 12 12 11 11 11 13 12 11 9 9 9 8 8 8 10 6 6 8 7 7 8 8 7
10 11 11 10 10 9 10 10 10 9 9 10 10 11 11 11 12 12 12 11 11 11 13 13 12 13 12 12 17 13 13 16 11 7 5 7 8 10 8 7 8 8 7
9 10 10 10 10 9 8 9 9 9 10 11 10 10 11 11 12 12 11 11 11 12 12 8 10 16 15 13 12 15 15 14 9 12 6 6 7 7 7 8 11 7 8
Wind_Direction
339 339 335 340 340 329 312 313 306 296 285 277 279 279 280 279 274 269 271 272 267 269 267 266 270 273 271 271 268 264 263 260 267 276 280 289 294 292 299 302 305 301 298
335 331 334 338 337 341 337 326 318 304 296 289 285 279 277 274 273 273 279 278 277 276 274 270 271 271 267 265 263 259 258 263 268 280 286 287 283 301 315 305 311 295 301
322 322 323 336 337 335 336 331 317 304 301 296 286 285 287 284 281 275 273 276 274 272 273 274 277 277 274 271 267 268 269 268 267 272 284 289 282 285 286 289 290 312 306
308 309 317 328 327 327 326 326 326 325 311 304 294 287 284 283 278 276 273 272 272 271 269 265 266 264 264 268 266 267 266 265 264 265 275 283 289 295 289 290 291 300 318
283 286 294 307 315 320 330 336 337 333 327 320 309 300 291 280 276 286 282 275 273 272 268 264 261 258 260 259 267 267 265 266 267 268 271 280 282 282 289 309 297 299 301
273 278 287 298 310 319 328 332 331 330 329 321 317 311 307 301 320 301 292 287 281 274 274 272 269 252 252 254 251 248 252 259 258 262 271 271 279 281 286 282 295 300 305
270 272 273 282 299 315 317 315 318 318 314 315 315 318 312 309 313 311 306 286 281 277 278 278 278 271 255 262 261 258 258 253 249 259 261 260 269 274 277 277 276 276 277
262 268 270 281 294 301 300 298 298 298 302 310 307 308 302 300 304 311 311 290 284 281 280 281 281 283 279 279 276 273 266 259 252 247 252 264 267 271 256 269 277 285 280
261 266 270 275 283 288 290 293 293 292 294 294 295 294 289 289 284 297 306 297 287 284 277 270 269 273 273 272 273 273 274 269 257 255 259 265 266 258 248 259 251 261 277
258 267 277 274 277 281 283 288 291 281 286 285 283 273 273 280 280 273 279 280 279 282 282 274 257 264 283 281 277 272 272 272 273 267 258 257 251 243 240 238 243 243 248
262 261 259 256 260 269 276 280 283 286 281 282 284 288 283 274 284 277 274 273 274 282 282 282 277 272 271 274 274 271 271 284 280 272 267 259 250 241 235 229 228 230 231
264 265 269 271 265 263 270 277 277 274 276 278 282 280 275 272 257 267 265 258 270 273 276 280 282 276 268 269 274 269 270 272 275 271 251 254 251 240 232 225 224 226 226
274 272 275 269 265 267 269 272 276 275 277 281 279 279 280 278 277 267 269 265 259 258 262 265 271 276 277 281 272 269 269 263 248 253 259 257 242 249 243 221 223 220 236
274 272 274 279 285 284 272 274 280 281 282 285 284 283 286 287 285 283 282 279 272 268 268 271 272 273 272 271 277 270 264 256 248 245 247 250 253 237 217 216 220 214 228
283 281 278 277 279 281 272 271 275 276 270 280 283 287 289 285 282 286 288 280 277 278 290 281 274 272 270 264 259 257 258 263 260 257 256 250 244 232 221 216 206 204 223
280 280 275 279 279 276 280 284 253 254 268 268 269 266 274 274 281 282 281 278 278 279 278 274 268 265 264 268 267 264 260 270 262 260 257 259 253 240 227 216 203 203 217
268 273 273 269 274 276 276 279 288 282 267 270 271 274 276 277 287 289 287 283 281 282 270 267 264 265 267 270 267 264 263 268 270 255 250 251 252 244 235 219 210 203 211
273 266 265 271 271 270 270 269 271 278 292 293 290 283 284 286 284 282 283 289 277 268 260 268 273 272 270 271 267 265 266 264 264 267 252 248 244 239 232 222 213 213 208
273 269 267 267 265 264 267 267 270 274 276 280 286 287 290 286 284 283 283 269 268 268 265 261 259 263 267 271 268 266 264 260 267 261 251 252 239 232 231 224 219 208 196
273 265 259 261 260 263 266 268 271 269 273 272 276 279 295 301 293 292 286 278 271 269 270 272 271 270 270 271 268 263 261 259 265 262 264 253 235 224 229 221 204 199 196
278 279 272 267 264 265 265 267 267 272 273 275 277 284 291 288 284 286 286 281 279 278 274 269 267 267 267 267 267 265 263 259 261 266 256 249 226 222 216 210 197 187 181
277 276 274 267 260 260 262 263 267 271 274 277 283 286 290 281 271 271 272 272 273 273 272 271 269 267 268 268 266 265 261 263 267 263 260 239 218 211 201 193 180 173 179
273 273 272 270 267 269 267 268 274 278 278 277 272 275 275 271 268 266 268 272 277 276 273 270 269 267 265 263 261 257 259 259 263 262 258 223 208 204 195 181 171 171 175
277 276 273 272 272 271 274 279 275 273 272 271 272 271 271 272 271 274 274 275 276 276 274 271 266 263 264 260 262 256 247 254 251 253 237 203 199 194 177 165 165 169 169
275 275 273 272 270 271 275 273 268 268 269 272 270 271 274 277 278 279 278 278 278 274 272 270 265 261 256 273 266 253 257 257 245 220 200 189 187 176 165 157 158 161 163
269 264 265 268 266 263 263 265 266 271 271 272 274 276 281 283 282 283 283 281 278 276 279 284 290 275 268 270 260 261 257 255 243 200 180 174 165 157 153 149 150 153 157